DECAYED
Showing default

BEESAT-8, 48085 (Decayed)

Orbit data source: Space-Track

BEESAT-8, 48085 was a payload satellite owned by TUB (DE) in LEO that was launched on Mon, 22 Mar 2021 UTC via a SOYUZ-2-1A launch vehicle from the Tyuratam Missile And Space Complex (TTMTR). Payload-class satellites include a variety of spacecraft equipped with specific instruments for various scientific and technological missions. These include communications satellites like Starlink; space stations such as the ISS; scientific satellites like the Hubble; Earth observation satellites from companies like Planet Labs, Umbra, and HawkEye 360; GPS; miniature CubeSats for education and research; and military/defense satellites.

Not visible in the next 10 days
Identifier
48085, 2021-022AP
Orbit
Decayed
Country
Flag of DEDE / GER
Related business
Manufacturer
TUB
Mission
Decayed Amateur Technology
Bus & Motor
CUBESAT 0.25U, Unknown motor
Mass
0.3 kg wet, 0.3 kg dry
Launch date (UTC)
2021-03-22 (5 years ago)
Launch vehicle
SOYUZ-2-1A
Launch site
Tyuratam Missile And Space Complex (TTMTR)
Object type
Payload
Rocket body
Debris
Shape & HBR
Box, 0.1 m
Radar Cross Section
0.007 m², Medium (>0.1 m² and < 1m²)

Expand to show TLE details & history
Last TLE update: 1 year ago

TLE from 1 year ago
0 BEESAT-8
1 48085U 21022AP  25024.22097960  .06165242  25331-5  21242-2 0  9998
2 48085  97.4815 300.4940 0005722 122.1753 238.0094 16.25410100212122
Epoch: 2025-01-24T05:18Z
TLE epoch observation values (Epoch: 2025-01-24T05:18:12.637Z)
Latitude
-0.00003°
Longitude
97.15408°
Altitude
210.131 km
Speed
7.779 km/s
True Right ascension
20h 01m 58s
True Declination
0° 00' 00"
Sunlit
Object was in daylight at epoch
Visualization orbit readout
Latitude
Unknown
Longitude
Unknown
Altitude
Unknown
Speed
Unknown
Apparent Right ascension
Unknown
Apparent Declination
Unknown
Sunlit
N/A
Visualization observer readout
Local Sidereal Time
21:38:58
Azimuth
Unknown
Elevation
Unknown
Doppler factor
Unknown
Orbital elements
Apogee altitude
205.499 km
Perigee altitude
197.969 km
Semi-major axis
6,579.871 km
Eccentricity
0.00057
Inclination
97.4815°
RAAN
300.494°
Arg. of periapsis
122.1753°
True anomaly
237.95381°
Mean anomaly
238.0094°
Eccentric anomaly
237.9816°
Mean motion
4.06647 °/min
Orbital period
88.53 mins
BSTAR
0.0021242
Loading maneuver chart data...
Computing Atmospheric mass density...
Loading historical data...
Loading historical data...
Loading historical data...
Loading historical data...
Loading historical data...
Loading historical data...
Loading historical data...

Documentation

Showing up to 5 results
|